Temperature
15 15 15 15 15 15 15 16 16 17 18 17 16 16 15 15 15 15 15 15 15 15 15 15 15 15 15 15 14 15 15 15 15 14 14 14 14 14
15 15 15 15 15 15 15 15 15 16 17 17 16 16 15 15 15 15 15 15 15 15 15 15 15 15 15 15 15 15 15 15 15 15 15 15 14 14
15 15 15 15 15 15 15 15 15 15 15 16 16 15 15 15 15 15 15 15 15 15 15 15 15 15 15 15 15 15 15 15 15 15 15 15 14 14
15 15 14 14 15 15 14 14 15 15 15 15 15 15 14 14 15 15 15 15 15 15 15 15 15 15 15 15 15 15 15 15 15 15 15 15 14 14
15 15 14 14 14 14 14 14 14 14 14 14 14 15 14 14 14 14 14 14 15 15 15 15 15 15 15 15 15 15 15 15 15 15 15 15 14 14
15 15 14 14 14 14 14 14 14 14 14 14 14 14 14 14 14 14 14 14 14 14 14 14 14 15 15 15 15 15 15 15 15 15 15 14 14 14
15 14 14 14 14 14 13 13 13 13 13 14 14 14 14 14 14 14 14 14 14 14 14 14 14 14 14 14 14 14 14 14 14 14 14 14 14 14
14 14 14 13 13 13 13 13 13 13 13 13 13 13 13 13 13 13 13 13 13 13 13 13 14 14 14 13 14 14 14 14 14 14 14 14 14 14
13 13 13 13 13 12 12 12 12 12 12 12 12 12 12 12 12 12 11 11 12 12 12 12 13 13 13 13 13 13 13 13 13 13 13 13 13 13
12 12 12 12 12 12 11 11 11 11 11 11 11 11 11 11 11 11 11 11 11 11 11 11 12 12 12 13 12 12 12 12 12 12 12 13 13 13
11 11 11 11 11 11 11 10 10 10 10 10 10 10 11 10 10 10 10 10 10 11 11 11 11 11 11 12 12 12 11 11 11 11 12 12 12 12
10 10 10 10 10 10 10 9 9 9 9 9 9 9 9 9 9 9 9 9 9 10 11 10 10 10 10 11 11 11 11 11 11 11 11 11 11 11
9 9 9 9 9 9 9 8 8 8 8 8 8 8 8 8 8 8 7 7 8 8 9 9 9 9 9 10 10 10 10 10 10 10 10 10 10 10
8 8 8 8 8 8 7 7 7 7 7 7 7 7 7 7 7 7 7 6 6 6 7 7 7 7 7 8 9 9 9 9 9 10 10 10 10 10
7 7 7 7 7 6 6 6 6 6 6 6 6 6 6 6 6 6 6 6 6 6 6 6 6 6 6 7 7 8 8 8 9 9 9 9 9 9
6 6 6 6 6 5 5 5 5 5 5 5 5 5 5 5 5 5 5 5 5 5 6 6 5 5 6 6 6 7 7 7 8 8 8 9 9 9
6 6 6 6 5 5 5 5 4 4 4 4 4 4 4 4 4 4 4 4 4 5 5 5 5 5 5 5 6 6 7 7 7 7 7 8 8 8
5 5 5 5 5 4 4 4 4 4 3 3 3 3 3 3 3 3 3 3 3 4 4 4 4 4 5 5 5 6 6 6 7 7 7 7 7 8
4 4 4 4 3 3 3 3 3 2 2 2 2 2 2 2 2 2 2 2 3 3 3 3 3 3 4 4 5 5 5 5 5 6 6 6 7 7
3 3 3 3 2 2 2 2 2 2 1 1 1 1 1 1 1 1 1 2 2 2 2 3 3 3 3 3 3 4 5 5 5 5 6 6 6 6
3 2 2 2 1 1 1 1 1 1 1 1 1 1 1 1 1 1 1 1 1 1 2 2 2 2 2 3 3 4 5 5 5 5 5 5 5 6
2 1 1 1 1 0 0 0 0 0 0 0 0 0 0 0 0 0 0 1 1 1 1 2 2 2 2 2 3 3 4 5 5 5 5 5 5 5
1 1 1 1 0 0 -0 -0 -0 -0 -0 -0 -0 -0 -0 -0 -0 -0 0 0 0 1 1 1 2 2 2 2 3 3 3 4 4 5 5 6 6 6
Wind_Speed
5 6 6 4 4 5 5 5 6 6 5 4 5 5 6 6 5 8 9 10 12 13 13 14 14 14 14 14 14 14 14 14 14 14 14 14 14 15
4 4 5 6 5 5 5 5 6 7 7 4 4 4 4 6 7 8 10 9 14 16 16 17 17 17 17 17 17 17 17 17 17 16 16 17 17 16
7 7 7 6 6 6 6 6 6 7 8 7 6 5 6 8 7 9 11 12 13 19 19 19 19 19 20 20 20 20 20 20 20 19 19 19 19 19
8 8 8 7 8 8 7 8 7 7 8 10 8 7 8 9 9 9 11 12 13 14 19 19 20 21 21 22 22 22 22 22 22 22 22 22 21 21
8 9 9 9 9 8 8 9 8 8 8 9 10 8 8 8 8 10 12 10 13 14 16 21 22 23 23 23 23 23 24 24 24 24 24 24 24 23
8 8 8 8 9 9 9 9 9 9 9 10 10 9 9 9 8 9 10 9 10 11 12 13 16 21 24 25 25 25 25 25 25 25 25 25 25 25
6 6 6 4 3 5 7 7 8 8 9 9 10 9 9 8 8 8 10 10 10 10 11 11 11 13 15 21 26 26 26 25 25 25 26 26 26 26
3 3 3 2 3 3 5 6 6 8 9 9 9 10 10 9 8 9 10 11 11 8 8 11 11 12 12 16 15 18 22 24 24 25 26 26 27 27
1 2 1 3 3 3 3 5 5 4 5 7 10 9 8 7 8 10 10 12 12 11 11 14 13 14 14 17 15 15 18 21 23 25 25 26 26 27
3 2 2 3 5 5 5 4 4 3 3 5 6 8 8 8 8 10 11 13 14 13 12 14 14 14 14 15 14 16 20 22 24 25 26 26 26 26
4 4 3 3 7 8 5 5 5 5 4 4 7 9 11 11 10 9 11 12 14 13 11 12 13 14 14 14 16 18 21 23 24 25 25 26 26 25
3 3 6 5 6 7 6 6 7 7 8 8 8 10 11 11 11 10 11 12 13 13 10 9 12 12 14 13 12 12 14 17 23 25 26 26 25 20
3 3 4 6 5 6 6 6 6 8 9 9 9 9 8 8 8 9 9 10 12 13 11 11 13 13 15 15 15 14 14 14 15 16 21 25 25 21
4 4 5 5 5 6 5 5 8 9 8 8 9 9 8 8 8 9 10 12 13 15 15 14 14 14 15 17 16 15 14 14 15 15 15 17 20 25
4 3 3 5 8 6 4 6 8 8 8 9 9 9 9 10 10 10 12 12 14 16 16 15 14 13 14 16 17 16 16 15 15 15 15 15 15 14
5 3 7 9 8 6 6 6 6 7 8 9 10 10 10 10 10 10 11 11 12 12 13 14 14 14 15 16 16 16 16 16 15 16 16 16 15 15
9 7 6 6 7 7 7 7 8 8 8 8 9 10 10 11 11 10 10 11 12 13 13 11 12 13 14 15 16 17 17 16 16 15 15 17 17 16
10 6 7 8 8 9 9 9 9 9 9 10 10 10 10 11 11 11 11 11 12 12 13 12 12 13 13 14 14 17 16 15 14 14 15 17 18 17
6 7 7 8 8 9 9 9 10 10 10 10 10 10 10 11 11 11 12 12 12 12 13 13 13 13 14 16 15 12 14 15 15 15 15 16 18 17
7 7 8 8 8 9 9 9 10 10 10 10 10 10 10 11 11 12 12 13 13 13 14 13 13 12 13 15 16 18 18 17 16 16 17 16 17 18
7 8 8 8 8 8 9 9 10 10 10 10 10 10 10 11 11 12 12 15 14 13 14 14 14 15 14 13 14 16 16 16 16 16 17 17 18 18
8 8 8 8 8 8 9 9 10 10 11 10 11 11 11 11 12 13 13 13 13 13 15 14 15 14 13 14 16 18 19 18 17 19 22 21 17 16
8 9 9 9 9 8 9 10 12 11 10 11 11 11 12 12 12 12 13 13 13 14 15 14 14 13 14 14 15 16 19 19 16 15 15 16 20 24
Wind_Direction
223 217 237 237 241 251 257 265 274 275 258 210 226 205 221 234 200 235 241 210 220 232 237 241 245 248 249 250 252 253 254 255 256 256 254 251 251 253
236 241 242 244 239 243 248 251 260 272 278 266 233 231 235 256 209 236 248 220 228 234 238 242 245 248 249 250 252 253 254 254 255 255 255 253 252 252
224 226 231 249 249 246 243 246 249 255 263 269 257 240 239 262 254 250 251 247 243 224 229 238 243 247 249 250 251 252 253 254 254 254 253 253 253 252
230 232 235 231 234 250 252 251 251 254 260 269 270 258 239 245 252 256 258 254 258 230 219 233 242 247 249 250 251 251 252 252 253 253 253 253 252 252
237 237 239 239 239 242 244 251 251 247 248 262 266 267 262 253 252 253 256 257 264 255 225 230 238 245 249 250 251 251 251 252 252 253 253 253 252 252
242 243 243 242 242 247 248 250 257 261 255 257 264 265 260 256 254 262 264 251 255 267 266 255 241 237 243 246 248 249 249 250 251 251 252 252 253 253
247 247 249 255 284 272 269 266 261 258 261 260 263 267 267 268 265 271 275 279 271 268 270 266 257 251 245 240 240 243 244 246 249 250 251 252 252 252
263 266 258 254 264 255 276 285 288 274 273 275 274 277 283 286 289 284 285 282 280 279 280 277 276 273 269 265 251 233 234 241 247 250 252 252 253 253
344 330 327 20 14 322 272 244 258 263 279 282 284 290 295 300 301 291 287 285 284 289 290 280 277 275 273 269 253 237 236 241 247 252 254 254 254 254
46 41 33 24 15 350 320 306 298 295 284 274 283 287 293 302 292 284 284 281 275 268 264 270 275 276 279 278 266 241 239 243 247 251 254 255 256 256
52 47 36 33 22 351 323 311 304 296 264 256 274 276 281 278 275 280 278 276 278 279 273 272 278 280 280 279 274 252 238 239 244 249 252 254 255 257
51 61 62 33 15 353 328 315 307 311 313 301 280 268 266 262 242 250 271 277 280 283 283 281 282 286 284 278 277 280 267 252 246 247 248 250 251 257
1 354 38 41 4 338 312 310 317 310 300 293 289 285 279 274 267 259 263 271 279 280 289 295 289 285 282 284 284 283 281 281 274 263 251 245 243 242
350 353 19 13 331 307 304 320 299 288 288 291 290 290 291 292 294 294 290 281 276 277 283 285 282 282 283 283 283 283 281 280 279 277 276 264 244 238
353 9 322 288 281 273 235 265 281 291 303 301 300 301 304 305 302 295 286 279 275 273 273 271 272 277 277 279 283 284 285 283 279 276 274 272 270 263
340 280 231 241 257 280 289 284 300 317 316 307 305 305 305 302 298 299 299 299 294 289 284 280 275 274 274 276 278 280 279 279 279 278 277 275 271 268
325 311 321 330 327 332 330 328 323 320 315 313 309 307 306 306 306 306 303 300 295 295 297 294 287 280 273 275 276 275 277 277 276 277 277 275 272 269
314 332 339 338 336 336 332 329 328 328 328 322 317 315 313 310 308 306 303 299 296 295 295 297 297 294 288 280 264 274 277 280 282 281 278 276 275 273
322 349 345 341 338 334 331 330 329 331 329 321 318 316 314 311 308 305 303 300 298 297 297 298 296 293 290 289 287 278 287 289 288 284 279 276 277 277
352 347 341 338 335 333 331 329 326 326 324 321 318 316 313 310 308 306 304 303 302 301 298 295 291 290 290 292 293 291 280 277 280 281 281 281 279 277
349 344 340 338 335 333 331 327 324 321 320 317 315 315 312 309 306 304 303 301 297 294 294 294 295 296 292 289 285 283 285 276 270 274 281 283 282 281
346 341 338 334 332 330 327 325 323 320 320 318 318 316 312 308 305 304 302 301 299 297 297 296 296 294 289 285 285 289 292 292 282 263 256 258 268 274
344 339 333 332 333 330 329 326 323 322 323 322 319 316 313 310 306 302 299 298 297 298 299 299 300 298 293 289 288 288 291 295 295 292 283 267 253 254
Height
1564 1564 1565 1566 1566 1567 1568 1568 1569 1568 1567 1567 1568 1567 1567 1567 1567 1567 1567 1566 1566 1566 1565 1565 1565 1564 1564 1564 1564 1563 1563 1563 1563 1563 1563 1563 1564 1564
1561 1562 1562 1564 1564 1564 1565 1565 1565 1566 1566 1565 1565 1566 1564 1565 1564 1563 1563 1562 1562 1562 1561 1561 1561 1560 1560 1559 1559 1559 1558 1558 1558 1558 1558 1558 1558 1558
1559 1559 1559 1560 1561 1562 1562 1562 1562 1563 1562 1562 1563 1562 1560 1560 1560 1559 1559 1558 1558 1557 1556 1556 1556 1555 1555 1554 1554 1553 1553 1553 1553 1552 1552 1552 1552 1552
1556 1556 1557 1557 1557 1558 1558 1558 1559 1558 1559 1558 1558 1558 1556 1555 1554 1554 1554 1554 1554 1553 1551 1551 1550 1550 1549 1549 1548 1548 1547 1547 1547 1546 1546 1546 1546 1545
1553 1553 1553 1553 1553 1554 1554 1554 1555 1555 1554 1554 1553 1554 1553 1552 1551 1549 1549 1548 1548 1548 1546 1544 1543 1543 1543 1542 1541 1541 1541 1540 1540 1540 1539 1539 1539 1539
1549 1549 1549 1549 1549 1550 1550 1549 1550 1550 1550 1549 1548 1548 1548 1547 1546 1545 1545 1544 1542 1542 1541 1539 1537 1536 1535 1534 1534 1533 1533 1533 1532 1532 1532 1532 1532 1532
1545 1545 1545 1545 1544 1545 1545 1545 1545 1545 1545 1544 1543 1543 1543 1542 1541 1540 1539 1538 1536 1536 1535 1534 1532 1530 1529 1527 1526 1525 1525 1525 1524 1524 1524 1524 1523 1523
1541 1540 1540 1540 1539 1539 1539 1539 1539 1539 1539 1538 1537 1537 1537 1536 1535 1534 1533 1531 1530 1530 1528 1527 1526 1524 1522 1521 1520 1518 1517 1516 1516 1515 1515 1514 1514 1514
1536 1536 1536 1535 1535 1534 1534 1533 1533 1532 1532 1532 1531 1531 1530 1529 1528 1527 1526 1525 1522 1522 1521 1517 1517 1515 1514 1513 1511 1509 1508 1507 1506 1506 1505 1504 1504 1504
1532 1532 1531 1531 1530 1530 1529 1528 1528 1527 1526 1526 1525 1524 1523 1522 1522 1520 1518 1516 1514 1513 1512 1509 1508 1507 1506 1504 1502 1500 1498 1497 1496 1495 1494 1494 1493 1493
1529 1528 1527 1527 1526 1525 1525 1524 1523 1522 1521 1520 1518 1517 1516 1515 1514 1513 1511 1510 1507 1507 1506 1503 1500 1499 1497 1495 1494 1491 1489 1487 1486 1484 1483 1483 1483 1482
1527 1526 1524 1523 1522 1521 1520 1519 1518 1517 1515 1514 1512 1511 1509 1508 1506 1505 1504 1503 1501 1499 1498 1497 1494 1492 1488 1487 1486 1484 1482 1479 1477 1475 1473 1473 1472 1471
1526 1525 1523 1520 1519 1517 1516 1515 1513 1511 1509 1508 1507 1506 1504 1502 1501 1499 1498 1496 1494 1492 1492 1490 1487 1485 1483 1479 1477 1476 1474 1472 1469 1467 1465 1463 1462 1462
1523 1522 1520 1517 1515 1514 1512 1510 1509 1507 1506 1505 1503 1502 1500 1498 1496 1494 1492 1489 1487 1484 1482 1482 1479 1477 1475 1471 1468 1467 1465 1463 1461 1459 1457 1455 1453 1451
1520 1519 1517 1515 1513 1511 1509 1507 1505 1504 1503 1502 1500 1498 1495 1493 1490 1487 1485 1482 1480 1478 1476 1474 1472 1470 1468 1464 1461 1459 1457 1454 1453 1450 1448 1446 1444 1443
1518 1516 1514 1512 1511 1509 1507 1506 1504 1502 1499 1497 1495 1492 1490 1487 1485 1482 1480 1477 1474 1471 1470 1468 1465 1463 1460 1457 1454 1451 1449 1446 1444 1442 1439 1437 1435 1434
1516 1515 1514 1512 1510 1508 1506 1503 1501 1499 1496 1493 1491 1488 1485 1482 1480 1477 1474 1471 1469 1465 1463 1461 1459 1456 1452 1450 1446 1443 1440 1438 1436 1433 1430 1427 1425 1424
1514 1514 1512 1510 1508 1505 1503 1500 1498 1495 1492 1490 1487 1484 1481 1478 1475 1472 1469 1466 1463 1460 1457 1454 1451 1447 1444 1442 1440 1435 1432 1430 1427 1425 1422 1418 1415 1414
1514 1512 1510 1507 1505 1502 1500 1497 1494 1492 1488 1485 1482 1479 1476 1473 1470 1467 1464 1461 1457 1454 1451 1448 1445 1441 1437 1432 1430 1429 1425 1421 1418 1415 1413 1409 1405 1404
1513 1510 1508 1505 1503 1500 1497 1494 1491 1488 1485 1482 1478 1475 1472 1469 1465 1462 1459 1455 1451 1447 1444 1441 1438 1435 1431 1426 1421 1418 1417 1413 1410 1406 1404 1400 1397 1394
1511 1508 1506 1503 1500 1497 1494 1491 1488 1485 1482 1478 1475 1471 1468 1464 1460 1457 1453 1449 1445 1441 1437 1434 1431 1428 1424 1419 1414 1409 1407 1405 1402 1398 1395 1391 1387 1384
1509 1506 1504 1501 1498 1495 1492 1488 1485 1482 1478 1474 1471 1467 1463 1459 1455 1451 1447 1443 1440 1436 1431 1427 1424 1420 1417 1413 1407 1402 1398 1395 1392 1389 1386 1383 1379 1374
1507 1504 1501 1499 1496 1492 1489 1485 1482 1478 1475 1471 1466 1462 1458 1454 1450 1446 1442 1438 1434 1430 1426 1421 1417 1414 1410 1406 1401 1395 1391 1387 1383 1380 1376 1374 1371 1367